{"data":{"norad_id":81219,"intl_designator":"","name":"UNKNOWN","alt_names":[],"object_type":"UNKNOWN","status":"UNKNOWN","operator":null,"country":null,"launch_date":null,"launch_site_code":null,"launch_vehicle":null,"mission":null,"orbit_class":"UNKNOWN","rcs_meters":null,"size_class":null,"mass_kg":null,"dimensions":null,"purposes":[],"wikipedia_slug":null,"has_3d_model":false,"image_url":null,"decayed_at":null,"tle_current":{"epoch":"2026-09-17T11:00:56.478528Z","epoch_age_seconds":277285,"freshness":"STALE","line1":"1 81219U          26260.45898702  .00000421  00000+0  37639-3 0  9997","line2":"2 81219  82.9281 156.7496 0021047 143.4706 216.7895 13.82047263646011","mean_motion":13.82047263,"eccentricity":0.0021047,"inclination_deg":82.9281,"raan_deg":156.7496,"arg_perigee_deg":143.4706,"mean_anomaly_deg":216.7895,"bstar":0.00037639,"rev_number":64601,"period_min":104.19325290469,"perigee_km":941.19682143722,"apogee_km":972.071807809,"semimajor_km":7334.7713146231,"source":"CELESTRAK","updated_at":"2026-09-20T09:00:32.384086Z"}}}